Weather History for CWEK - November, 2012

Change the Weather History Date:

Tuesday, November 20, 2012

  Actual Average Record
Temperature  
Mean Temperature 42 °F -  
Max Temperature 44 °F - - ()
Min Temperature 38 °F - - ()
Degree Days  
Heating Degree Days 24    
Moisture  
Dew Point 36 °F    
Average Humidity 77    
Maximum Humidity 89    
Minimum Humidity 60    
Precipitation  
Precipitation 0.08 in - - ()
Sea Level Pressure  
Sea Level Pressure 29.34 in    
Wind  
Wind Speed 23 mph ()    
Max Wind Speed 43 mph    
Max Gust Speed 51 mph    
T = Trace of Precipitation, MM = Missing Value Source: Averaged Metar Reports

Daily Weather History Graph

Daily Weather History Graph

Search for Another Location

Airport or City:

Trip Planner

Search our weather history database for the weather conditions in past years. The results will help you decide how hot, cold, wet, or windy it might be!

Date:

Astronomy

Nov. 20, 2012 Rise Set
Actual Time 8:23 AM PST 4:32 PM PST
Civil Twilight 7:42 AM PST 5:14 PM PST
Nautical Twilight 6:57 AM PST 5:58 PM PST
Astronomical Twilight 6:14 AM PST 6:41 PM PST
Moon 1:25 PM PST (11/20) No Moon Set
Length of Visible Light 9h 31m
Length of Day
8h 09m
First Quarter, 52% of the Moon is Illuminated
Nov 20
First Quarter
Nov 28
Full
Dec 6
Last Quarter
Dec 13
New
Dec 19
First Quarter

Hourly Weather History & Observations

Time (PST) Temp. Windchill Dew Point Humidity Pressure Visibility Wind Dir Wind Speed Gust Speed Precip Events Conditions
12:00 AM 43.9 °F 36.8 °F 37.4 °F 78% 29.37 in - SSE 15.0 mph - N/A   Unknown
1:00 AM 43.7 °F 38.6 °F 36.3 °F 75% 29.39 in - SE 9.2 mph - N/A   Unknown
2:00 AM 43.2 °F 39.0 °F 36.9 °F 78% 29.41 in - East 6.9 mph - N/A   Unknown
3:00 AM 41.9 °F 33.4 °F 37.8 °F 85% 29.42 in - ENE 18.4 mph - N/A   Unknown
4:00 AM 42 °F - 38 °F 83% 29.42 in - ENE 21.9 mph - -  
4:00 AM 42.1 °F 32.8 °F 38.5 °F 87% 29.42 in - ENE 21.9 mph - N/A   Unknown
5:00 AM 41.9 °F 31.9 °F 38.3 °F 87% 29.41 in - ENE 25.3 mph - N/A   Unknown
6:00 AM 42.1 °F 31.5 °F 37.8 °F 85% 29.41 in - ENE 28.8 mph 34.5 mph N/A   Unknown
7:00 AM 42.4 °F 32.2 °F 37.9 °F 84% 29.39 in - ENE 27.6 mph 34.5 mph N/A   Unknown
8:00 AM 42.4 °F 31.6 °F 37.9 °F 84% 29.37 in - NE 31.1 mph - N/A   Unknown
9:00 AM 42.4 °F 31.1 °F 37.6 °F 83% 29.37 in - NE 34.5 mph 41.4 mph N/A   Unknown
10:00 AM 43 °F - 37 °F 71% 29.34 in - NE 36.8 mph - -  
10:00 AM 43.0 °F 31.5 °F 36.7 °F 78% 29.34 in - NE 36.8 mph 42.6 mph N/A   Unknown
11:00 AM 43.5 °F 31.7 °F 36.3 °F 76% 29.32 in - NE 41.4 mph 48.3 mph N/A   Unknown
12:00 PM 44.6 °F 33.3 °F 35.8 °F 71% 29.31 in - NE 40.3 mph 49.5 mph N/A   Unknown
1:00 PM 44.6 °F 33.1 °F 34.3 °F 67% 29.29 in - NE 42.6 mph 49.5 mph N/A   Unknown
2:00 PM 44.4 °F 33.0 °F 33.4 °F 65% 29.27 in - NE 41.4 mph 49.5 mph N/A   Unknown
3:00 PM 44.6 °F 33.3 °F 34.9 °F 69% 29.27 in - NE 40.3 mph 50.6 mph N/A   Unknown
4:00 PM 43 °F - 34 °F 60% 29.26 in - NE 38.0 mph - -  
4:00 PM 43.3 °F 31.9 °F 33.6 °F 69% 29.26 in - NE 38.0 mph 48.3 mph N/A   Unknown
5:00 PM 43.0 °F 31.2 °F 33.1 °F 68% 29.26 in - NE 39.1 mph 47.2 mph N/A   Unknown
6:00 PM 42.4 °F 30.6 °F 34.2 °F 72% 29.27 in - NE 38.0 mph 43.7 mph N/A   Unknown
7:00 PM 41.4 °F 29.5 °F 34.3 °F 76% 29.28 in - NE 35.7 mph 46.0 mph 0.02 in   Unknown
8:00 PM 41.2 °F 29.9 °F 32.9 °F 72% 29.29 in - NE 31.1 mph 38.0 mph 0.01 in   Unknown
9:00 PM 40.1 °F 28.8 °F 33.4 °F 77% 29.31 in - ENE 28.8 mph 34.5 mph 0.02 in   Unknown
10:00 PM 39 °F - 34 °F 74% 29.33 in - ENE 25.3 mph - -  
10:00 PM 39.0 °F 28.0 °F 33.6 °F 81% 29.33 in - ENE 25.3 mph 36.8 mph 0.02 in   Unknown
11:00 PM 38.8 °F 27.3 °F 35.8 °F 89% 29.36 in - ENE 27.6 mph - 0.02 in   Unknown